x

South Brooks (46132) Wave Buoy

12:00 - Tue 4th Aug 2015 All times are PDT. -7 hours from GMT.

  • Sig Wave height 5.2ft
  • Peak Period 6s
  • Wind
    13mph, 16mph gusts
  • Sea Temp 55°f
  • Luft Temp 57°f
  • Sea Pressure 1017.8mb
  • South Brooks
  • South Brooks

More Historic Weather Station data

Upgrade to MSW Pro to gain access to the past 30 days of data for over 8000 Wavebouys and Weather Stations around the globe.

Join Pro

Comparision Forecast

View Surf forecast
   
Di 08/04 12:00 5ft 6s 13 16 mph 1017.8mb 55f 57f
Mo 08/03 11:00 6ft 7s 13 16 mph 1017.8mb 55f 57f
10:00 5ft 7s 13 16 mph 1017.6mb 55f 58f
9:00 5.5ft 7s 16 18 mph 1017.4mb 55f 58f
8:00 5ft 7s 16 18 mph 1017.2mb 55f 58f
7:00 5.5ft 7s 16 20 mph 1017.1mb 55f 59f
6:00 6ft 7s 18 20 mph 1017mb 55f 59f
5:00 6ft 7s 16 20 mph 1017mb 55f 59f
4:00 6ft 7s 18 22 mph 1016.8mb 55f 59f
3:00 5ft 6s 18 22 mph 1016.7mb 55f 59f
2:00 4.5ft 5s 18 22 mph 1016.7mb 55f 59f
1:00 4.5ft 5s 18
mph
1016.4mb 55f 59f
12:00 4ft 5s 16 18 mph 1016.2mb 55f 58f
11:00 4ft 5s 18 20 mph 1016mb 54f 58f
10:00 3.5ft 4s 20 22 mph 1015.4mb 54f 58f
9:00 3.5ft 5s 20 25 mph 1014.9mb 54f 58f
8:00 2.5ft 14s 18 20 mph 1014.6mb 54f 58f
7:00 2.5ft 14s 11 13 mph 1014.3mb 53f 58f
6:00 2.5ft 13s 9 11 mph 1014mb 53f 58f
5:00 2.5ft 14s 11
mph
1013.7mb 53f 57f
4:00 2.5ft 14s 13 18 mph 1013.4mb 53f 58f
3:00 2.5ft 7s 11 13 mph 1013.7mb 53f 57f
2:00 3ft 14s 9 11 mph 1014.2mb 53f 58f
1:00 3ft 14s 9 11 mph 1014.4mb 53f 57f
12:00 3.5ft 4s 13 16 mph 1014.4mb 53f 58f
So 08/02 11:00 3ft 14s 13 16 mph 1014.7mb 53f 58f
10:00 3.5ft 4s 13 16 mph 1014.8mb 53f 58f
9:00 3.5ft 14s 13 16 mph 1014.8mb 53f 58f
8:00 3.5ft 13s 16 18 mph 1014.7mb 54f 59f
7:00 3.5ft 5s 16 18 mph 1015mb 54f 59f
6:00 3.5ft 5s 16 18 mph 1015.5mb 54f 60f
5:00 3.5ft 4s 18 20 mph 1015.3mb 54f 59f
4:00 4ft 14s 16 20 mph 1015.7mb 53f 59f
3:00 3.5ft 4s 16 18 mph 1016mb 53f 58f
2:00 3.5ft 6s 18 22 mph 1016mb 53f 58f
1:00 3.5ft 5s 18 20 mph 1016.3mb 53f 58f
12:00 3.5ft 4s 13 16 mph 1016.5mb 53f 57f
11:00 4ft 14s 13 16 mph 1016.6mb 53f 57f
10:00 4.5ft 14s 16
mph
1016.8mb 53f 57f
9:00 4.5ft 5s 18 22 mph 1016.8mb 53f 57f
8:00 4.5ft 5s 20 25 mph 1016.3mb 53f 57f
7:00 4.5ft 5s 20 25 mph 1016.4mb 53f 57f
6:00 4.5ft 6s 22 27 mph 1015.7mb 53f 57f
5:00 5ft 5s 20 22 mph 1015.5mb 53f 57f
4:00 5ft 6s 20 25 mph 1015mb 54f 57f
3:00 5ft 5s 22 29 mph 1015.1mb 54f 58f
2:00 5ft 5s 22 27 mph 1015.6mb 54f 58f
1:00 5.5ft 5s 22 27 mph 1015.5mb 54f 58f
12:00 5.5ft 5s 25 29 mph 1015.9mb 54f 58f
Sa 08/01 11:00 5.5ft 5s 25 29 mph 1016.5mb 54f 58f
10:00 5ft 6s 22 27 mph 1017.1mb 54f 59f
9:00 5ft 6s 22 27 mph 1017.3mb 54f 59f
8:00 5.5ft 6s 22 27 mph 1016.9mb 54f 59f
7:00 5.5ft 5s 22 25 mph 1017.1mb 54f 59f
6:00 5ft 14s 25 27 mph 1017.3mb 54f 60f
5:00 5ft 14s 25 27 mph 1017.4mb 54f 60f
4:00 5ft 6s 22 25 mph 1017.8mb 54f 59f
3:00 5ft 4s 20 25 mph 1018.3mb 55f 59f
2:00 4.5ft 8s 22 25 mph 1018.3mb 55f 59f
1:00  -   -  22
mph
1018.5mb - 59f
12:00 4.5ft 8s 20 25 mph 1018.7mb 55f 59f
11:00 4.5ft 15s 18 20 mph 1019mb 54f 59f
10:00 4.5ft 14s 20 22 mph 1019mb 54f 59f
9:00 4.5ft 14s 20 22 mph 1018.8mb 54f 58f
8:00 5ft 8s 20 22 mph 1019mb 53f 58f
7:00 4.5ft 15s 18 22 mph 1019.4mb 53f 58f
6:00  -   -  18
mph
1019mb - 58f
5:00 4.5ft 15s 20 22 mph 1018.7mb 53f 58f
4:00 4.5ft 14s 20 22 mph 1018.6mb 54f 58f
3:00 4.5ft 15s 20 25 mph 1018.6mb 54f 59f
2:00 4.5ft 15s 22 27 mph 1018.7mb 54f 59f
1:00  -   -  22
mph
1018.9mb - 59f
12:00 5.5ft 15s 22 25 mph 1019.1mb 54f 59f
Fr 07/31 11:00 5ft 5s 22 27 mph 1019.1mb 54f 60f
10:00 5.5ft 5s 22 27 mph 1019mb 54f 60f
9:00 5.5ft 15s 22 27 mph 1018.9mb 54f 60f
8:00 5.5ft 5s 20 25 mph 1019mb 54f 60f
7:00 5ft 5s 22 27 mph 1019.2mb 55f 60f
6:00 5ft 15s 22 27 mph 1019.6mb 55f 60f
5:00 5ft 16s 22 27 mph 1019.9mb 55f 60f
3:00 5ft 15s 20 25 mph 1020.7mb 55f 60f
2:00 5ft 15s 20 25 mph 1020.8mb 55f 60f
1:00 5ft 15s 22 27 mph 1020.5mb 55f 60f
12:00 5ft 15s 22 25 mph 1020.7mb 55f 60f
11:00 5ft 14s 22 27 mph 1020.6mb 55f 60f
10:00 5ft 15s 22 27 mph 1020.5mb 55f 60f
9:00 5ft 15s 22 27 mph 1020.6mb 55f 59f